Year,Month,Day,Hour,Minute,Value (Times are PST for temperature in C)
2016,04,09,00,00,8.20
2016,04,09,00,01,8.20
2016,04,09,00,02,8.20
2016,04,09,00,03,8.20
2016,04,09,00,04,8.20
2016,04,09,00,05,8.10
2016,04,09,00,06,8.10
2016,04,09,00,07,8.10
2016,04,09,00,08,8.10
2016,04,09,00,09,8.10
2016,04,09,00,10,8.10
2016,04,09,00,11,8.10
2016,04,09,00,12,8.10
2016,04,09,00,13,8.10
2016,04,09,00,14,8.10
2016,04,09,00,15,8.20
2016,04,09,00,16,8.20
2016,04,09,00,17,8.20
2016,04,09,00,18,8.20
2016,04,09,00,19,8.10
2016,04,09,00,20,8.10
2016,04,09,00,21,8.10
2016,04,09,00,22,8.10
2016,04,09,00,23,8.10
2016,04,09,00,24,8.10
2016,04,09,00,25,8.10
2016,04,09,00,26,8.10
2016,04,09,00,27,8.00
2016,04,09,00,28,8.00
2016,04,09,00,29,8.00
2016,04,09,00,30,7.90
2016,04,09,00,31,7.90
2016,04,09,00,32,7.90
2016,04,09,00,33,7.90
2016,04,09,00,34,7.80
2016,04,09,00,35,7.80
2016,04,09,00,36,7.80
2016,04,09,00,37,7.70
2016,04,09,00,38,7.70
2016,04,09,00,39,7.70
2016,04,09,00,40,7.70
2016,04,09,00,41,7.70
2016,04,09,00,42,7.70
2016,04,09,00,43,7.70
2016,04,09,00,44,7.70
2016,04,09,00,45,7.70
2016,04,09,00,46,7.60
2016,04,09,00,47,7.60
2016,04,09,00,48,7.50
2016,04,09,00,49,7.40
2016,04,09,00,50,7.40
2016,04,09,00,51,7.30
2016,04,09,00,52,7.20
2016,04,09,00,53,7.20
2016,04,09,00,54,7.20
2016,04,09,00,55,7.20
2016,04,09,00,56,7.30
2016,04,09,00,57,7.20
2016,04,09,00,58,7.20
2016,04,09,00,59,7.20
2016,04,09,01,00,7.10
2016,04,09,01,01,7.10
2016,04,09,01,02,7.10
2016,04,09,01,03,7.00
2016,04,09,01,04,7.00
2016,04,09,01,05,6.90
2016,04,09,01,06,6.90
2016,04,09,01,07,6.90
2016,04,09,01,08,6.80
2016,04,09,01,09,6.80
2016,04,09,01,10,6.80
2016,04,09,01,11,6.80
2016,04,09,01,12,6.80
2016,04,09,01,13,6.80
2016,04,09,01,14,6.80
2016,04,09,01,15,6.70
2016,04,09,01,16,6.70
2016,04,09,01,17,6.70
2016,04,09,01,18,6.70
2016,04,09,01,19,6.70
2016,04,09,01,20,6.80
2016,04,09,01,21,6.80
2016,04,09,01,22,6.80
2016,04,09,01,23,6.70
2016,04,09,01,24,6.70
2016,04,09,01,25,6.70
2016,04,09,01,26,6.70
2016,04,09,01,27,6.70
2016,04,09,01,28,6.70
2016,04,09,01,29,6.70
2016,04,09,01,30,6.70
2016,04,09,01,31,6.70
2016,04,09,01,32,6.70
2016,04,09,01,33,6.70
2016,04,09,01,34,6.70
2016,04,09,01,35,6.70
2016,04,09,01,36,6.70
2016,04,09,01,37,6.60
2016,04,09,01,38,6.60
2016,04,09,01,39,6.60
2016,04,09,01,40,6.60
2016,04,09,01,41,6.60
2016,04,09,01,42,6.60
2016,04,09,01,43,6.50
2016,04,09,01,44,6.50
2016,04,09,01,45,6.40
2016,04,09,01,46,6.40
2016,04,09,01,47,6.30
2016,04,09,01,48,6.30
2016,04,09,01,49,6.30
2016,04,09,01,50,6.20
2016,04,09,01,51,6.20
2016,04,09,01,52,6.10
2016,04,09,01,53,6.10
2016,04,09,01,54,6.10
2016,04,09,01,55,6.10
2016,04,09,01,56,6.10
2016,04,09,01,57,6.10
2016,04,09,01,58,6.10
2016,04,09,01,59,6.00
2016,04,09,02,00,6.00
2016,04,09,02,01,5.90
2016,04,09,02,02,5.90
2016,04,09,02,03,5.80
2016,04,09,02,04,5.90
2016,04,09,02,05,5.80
2016,04,09,02,06,5.90
2016,04,09,02,07,5.90
2016,04,09,02,08,5.90
2016,04,09,02,09,5.90
2016,04,09,02,10,5.90
2016,04,09,02,11,5.90
2016,04,09,02,12,5.90
2016,04,09,02,13,5.90
2016,04,09,02,14,5.90
2016,04,09,02,15,5.90
2016,04,09,02,16,5.90
2016,04,09,02,17,5.90
2016,04,09,02,18,5.90
2016,04,09,02,19,5.90
2016,04,09,02,20,5.90
2016,04,09,02,21,5.90
2016,04,09,02,22,5.90
2016,04,09,02,23,5.90
2016,04,09,02,24,5.90
2016,04,09,02,25,5.80
2016,04,09,02,26,5.80
2016,04,09,02,27,5.80
2016,04,09,02,28,5.80
2016,04,09,02,29,5.80
2016,04,09,02,30,5.80
2016,04,09,02,31,5.80
2016,04,09,02,32,5.70
2016,04,09,02,33,5.70
2016,04,09,02,34,5.70
2016,04,09,02,35,5.70
2016,04,09,02,36,5.70
2016,04,09,02,37,5.70
2016,04,09,02,38,5.70
2016,04,09,02,39,5.70
2016,04,09,02,40,5.70
2016,04,09,02,41,5.70
2016,04,09,02,42,5.70
2016,04,09,02,43,5.70
2016,04,09,02,44,5.70
2016,04,09,02,45,5.70
2016,04,09,02,46,5.60
2016,04,09,02,47,5.60
2016,04,09,02,48,5.60
2016,04,09,02,49,5.60
2016,04,09,02,50,5.60
2016,04,09,02,51,5.50
2016,04,09,02,52,5.50
2016,04,09,02,53,5.50
2016,04,09,02,54,5.50
2016,04,09,02,55,5.50
2016,04,09,02,56,5.50
2016,04,09,02,57,5.50
2016,04,09,02,58,5.50
2016,04,09,02,59,5.50
2016,04,09,03,00,5.40
2016,04,09,03,01,5.50
2016,04,09,03,02,5.50
2016,04,09,03,03,5.50
2016,04,09,03,04,5.50
2016,04,09,03,05,5.60
2016,04,09,03,06,5.60
2016,04,09,03,07,5.60
2016,04,09,03,08,5.70
2016,04,09,03,09,5.70
2016,04,09,03,10,5.70
2016,04,09,03,11,5.70
2016,04,09,03,12,5.70
2016,04,09,03,13,5.70
2016,04,09,03,14,5.70
2016,04,09,03,15,5.70
2016,04,09,03,16,5.70
2016,04,09,03,17,5.70
2016,04,09,03,18,5.70
2016,04,09,03,19,5.60
2016,04,09,03,20,5.60
2016,04,09,03,21,5.60
2016,04,09,03,22,5.60
2016,04,09,03,23,5.60
2016,04,09,03,24,5.60
2016,04,09,03,25,5.50
2016,04,09,03,26,5.50
2016,04,09,03,27,5.40
2016,04,09,03,28,5.40
2016,04,09,03,29,5.40
2016,04,09,03,30,5.30
2016,04,09,03,31,5.30
2016,04,09,03,32,5.30
2016,04,09,03,33,5.30
2016,04,09,03,34,5.40
2016,04,09,03,35,5.40
2016,04,09,03,36,5.40
2016,04,09,03,37,5.40
2016,04,09,03,38,5.40
2016,04,09,03,39,5.40
2016,04,09,03,40,5.30
2016,04,09,03,41,5.30
2016,04,09,03,42,5.30
2016,04,09,03,43,5.20
2016,04,09,03,44,5.20
2016,04,09,03,45,5.20
2016,04,09,03,46,5.20
2016,04,09,03,47,5.20
2016,04,09,03,48,5.20
2016,04,09,03,49,5.20
2016,04,09,03,50,5.20
2016,04,09,03,51,5.10
2016,04,09,03,52,5.10
2016,04,09,03,53,5.10
2016,04,09,03,54,5.00
2016,04,09,03,55,5.00
2016,04,09,03,56,5.00
2016,04,09,03,57,4.90
2016,04,09,03,58,4.90
2016,04,09,03,59,4.90
2016,04,09,04,00,4.90
2016,04,09,04,01,4.90
2016,04,09,04,02,4.90
2016,04,09,04,03,4.90
2016,04,09,04,04,4.90
2016,04,09,04,05,4.90
2016,04,09,04,06,4.90
2016,04,09,04,07,4.90
2016,04,09,04,08,4.90
2016,04,09,04,09,4.90
2016,04,09,04,10,4.90
2016,04,09,04,11,4.90
2016,04,09,04,12,4.90
2016,04,09,04,13,4.90
2016,04,09,04,14,4.90
2016,04,09,04,15,4.90
2016,04,09,04,16,4.90
2016,04,09,04,17,4.90
2016,04,09,04,18,4.90
2016,04,09,04,19,4.90
2016,04,09,04,20,5.00
2016,04,09,04,21,5.00
2016,04,09,04,22,5.10
2016,04,09,04,23,5.10
2016,04,09,04,24,5.00
2016,04,09,04,25,5.10
2016,04,09,04,26,5.10
2016,04,09,04,27,5.10
2016,04,09,04,28,5.10
2016,04,09,04,29,5.10
2016,04,09,04,30,5.10
2016,04,09,04,31,5.20
2016,04,09,04,32,5.30
2016,04,09,04,33,5.50
2016,04,09,04,34,5.70
2016,04,09,04,35,5.80
2016,04,09,04,36,5.90
2016,04,09,04,37,6.00
2016,04,09,04,38,6.10
2016,04,09,04,39,6.10
2016,04,09,04,40,6.10
2016,04,09,04,41,6.10
2016,04,09,04,42,6.10
2016,04,09,04,43,6.20
2016,04,09,04,44,6.30
2016,04,09,04,45,6.30
2016,04,09,04,46,6.20
2016,04,09,04,47,6.20
2016,04,09,04,48,6.20
2016,04,09,04,49,6.10
2016,04,09,04,50,6.00
2016,04,09,04,51,6.00
2016,04,09,04,52,5.90
2016,04,09,04,53,5.80
2016,04,09,04,54,5.80
2016,04,09,04,55,5.70
2016,04,09,04,56,5.70
2016,04,09,04,57,5.60
2016,04,09,04,58,5.50
2016,04,09,04,59,5.30
2016,04,09,05,00,5.20
2016,04,09,05,01,5.10
2016,04,09,05,02,5.00
2016,04,09,05,03,4.90
2016,04,09,05,04,4.90
2016,04,09,05,05,4.90
2016,04,09,05,06,4.90
2016,04,09,05,07,4.90
2016,04,09,05,08,4.90
2016,04,09,05,09,4.90
2016,04,09,05,10,5.00
2016,04,09,05,11,5.00
2016,04,09,05,12,5.00
2016,04,09,05,13,5.00
2016,04,09,05,14,4.90
2016,04,09,05,15,4.90
2016,04,09,05,16,4.90
2016,04,09,05,17,4.90
2016,04,09,05,18,4.90
2016,04,09,05,19,4.90
2016,04,09,05,20,4.90
2016,04,09,05,21,4.90
2016,04,09,05,22,4.90
2016,04,09,05,23,5.00
2016,04,09,05,24,5.00
2016,04,09,05,25,5.00
2016,04,09,05,26,5.10
2016,04,09,05,27,5.10
2016,04,09,05,28,5.10
2016,04,09,05,29,5.10
2016,04,09,05,30,5.10
2016,04,09,05,31,5.10
2016,04,09,05,32,5.00
2016,04,09,05,33,5.00
2016,04,09,05,34,5.00
2016,04,09,05,35,5.00
2016,04,09,05,36,5.00
2016,04,09,05,37,5.00
2016,04,09,05,38,5.00
2016,04,09,05,39,4.90
2016,04,09,05,40,4.90
2016,04,09,05,41,4.90
2016,04,09,05,42,4.90
2016,04,09,05,43,4.90
2016,04,09,05,44,4.90
2016,04,09,05,45,4.80
2016,04,09,05,46,4.80
2016,04,09,05,47,4.80
2016,04,09,05,48,4.70
2016,04,09,05,49,4.60
2016,04,09,05,50,4.60
2016,04,09,05,51,4.50
2016,04,09,05,52,4.40
2016,04,09,05,53,4.40
2016,04,09,05,54,4.30
2016,04,09,05,55,4.30
2016,04,09,05,56,4.30
2016,04,09,05,57,4.30
2016,04,09,05,58,4.30
2016,04,09,05,59,4.20
2016,04,09,06,00,4.20
2016,04,09,06,01,4.20
2016,04,09,06,02,4.10
2016,04,09,06,03,4.10
2016,04,09,06,04,4.20
2016,04,09,06,05,4.10
2016,04,09,06,06,4.10
2016,04,09,06,07,4.10
2016,04,09,06,08,4.10
2016,04,09,06,09,4.10
2016,04,09,06,10,4.10
2016,04,09,06,11,4.10
2016,04,09,06,12,4.00
2016,04,09,06,13,3.90
2016,04,09,06,14,3.90
2016,04,09,06,15,3.90
2016,04,09,06,16,3.80
2016,04,09,06,17,3.80
2016,04,09,06,18,3.80
2016,04,09,06,19,3.90
2016,04,09,06,20,3.80
2016,04,09,06,21,3.90
2016,04,09,06,22,3.90
2016,04,09,06,23,3.90
2016,04,09,06,24,3.90
2016,04,09,06,25,3.80
2016,04,09,06,26,3.80
2016,04,09,06,27,3.80
2016,04,09,06,28,3.70
2016,04,09,06,29,3.70
2016,04,09,06,30,3.80
2016,04,09,06,31,3.80
2016,04,09,06,32,3.80
2016,04,09,06,33,3.80
2016,04,09,06,34,3.80
2016,04,09,06,35,3.80
2016,04,09,06,36,3.80
2016,04,09,06,37,3.80
2016,04,09,06,38,3.80
2016,04,09,06,39,3.80
2016,04,09,06,40,3.80
2016,04,09,06,41,3.80
2016,04,09,06,42,3.80
2016,04,09,06,43,3.80
2016,04,09,06,44,3.80
2016,04,09,06,45,3.80
2016,04,09,06,46,3.80
2016,04,09,06,47,3.80
2016,04,09,06,48,3.80
2016,04,09,06,49,3.80
2016,04,09,06,50,3.80
2016,04,09,06,51,3.80
2016,04,09,06,52,3.80
2016,04,09,06,53,3.80
2016,04,09,06,54,3.80
2016,04,09,06,55,3.80
2016,04,09,06,56,3.80
2016,04,09,06,57,3.80
2016,04,09,06,58,3.70
2016,04,09,06,59,3.70
2016,04,09,07,00,3.60
2016,04,09,07,01,3.60
2016,04,09,07,02,3.50
2016,04,09,07,03,3.50
2016,04,09,07,04,3.50
2016,04,09,07,05,3.50
2016,04,09,07,06,3.50
2016,04,09,07,07,3.40
2016,04,09,07,08,3.40
2016,04,09,07,09,3.50
2016,04,09,07,10,3.50
2016,04,09,07,11,3.50
2016,04,09,07,12,3.50
2016,04,09,07,13,3.60
2016,04,09,07,14,3.60
2016,04,09,07,15,3.60
2016,04,09,07,16,3.60
2016,04,09,07,17,3.70
2016,04,09,07,18,3.70
2016,04,09,07,19,3.70
2016,04,09,07,20,3.70
2016,04,09,07,21,3.70
2016,04,09,07,22,3.80
2016,04,09,07,23,3.80
2016,04,09,07,24,3.90
2016,04,09,07,25,3.90
2016,04,09,07,26,3.90
2016,04,09,07,27,4.00
2016,04,09,07,28,4.00
2016,04,09,07,29,4.10
2016,04,09,07,30,4.10
2016,04,09,07,31,4.10
2016,04,09,07,32,4.20
2016,04,09,07,33,4.20
2016,04,09,07,34,4.20
2016,04,09,07,35,4.20
2016,04,09,07,36,4.30
2016,04,09,07,37,4.30
2016,04,09,07,38,4.30
2016,04,09,07,39,4.40
2016,04,09,07,40,4.40
2016,04,09,07,41,4.50
2016,04,09,07,42,4.50
2016,04,09,07,43,4.50
2016,04,09,07,44,4.50
2016,04,09,07,45,4.50
2016,04,09,07,46,4.50
2016,04,09,07,47,4.50
2016,04,09,07,48,4.50
2016,04,09,07,49,4.50
2016,04,09,07,50,4.50
2016,04,09,07,51,4.50
2016,04,09,07,52,4.50
2016,04,09,07,53,4.50
2016,04,09,07,54,4.60
2016,04,09,07,55,4.50
2016,04,09,07,56,4.50
2016,04,09,07,57,4.60
2016,04,09,07,58,4.60
2016,04,09,07,59,4.60
2016,04,09,08,00,4.60
2016,04,09,08,01,4.60
2016,04,09,08,02,4.70
2016,04,09,08,03,4.70
2016,04,09,08,04,4.70
2016,04,09,08,05,4.80
2016,04,09,08,06,4.80
2016,04,09,08,07,4.80
2016,04,09,08,08,4.90
2016,04,09,08,09,4.90
2016,04,09,08,10,5.00
2016,04,09,08,11,5.00
2016,04,09,08,12,5.10
2016,04,09,08,13,5.10
2016,04,09,08,14,5.20
2016,04,09,08,15,5.30
2016,04,09,08,16,5.30
2016,04,09,08,17,5.40
2016,04,09,08,18,5.50
2016,04,09,08,19,5.60
2016,04,09,08,20,5.70
2016,04,09,08,21,5.80
2016,04,09,08,22,5.90
2016,04,09,08,23,5.90
2016,04,09,08,24,6.00
2016,04,09,08,25,6.00
2016,04,09,08,26,6.10
2016,04,09,08,27,6.10
2016,04,09,08,28,6.20
2016,04,09,08,29,6.30
2016,04,09,08,30,6.30
2016,04,09,08,31,6.30
2016,04,09,08,32,6.40
2016,04,09,08,33,6.40
2016,04,09,08,34,6.50
2016,04,09,08,35,6.50
2016,04,09,08,36,6.60
2016,04,09,08,37,6.60
2016,04,09,08,38,6.60
2016,04,09,08,39,6.70
2016,04,09,08,40,6.80
2016,04,09,08,41,6.80
2016,04,09,08,42,6.90
2016,04,09,08,43,7.00
2016,04,09,08,44,7.10
2016,04,09,08,45,7.10
2016,04,09,08,46,7.20
2016,04,09,08,47,7.20
2016,04,09,08,48,7.30
2016,04,09,08,49,7.30
2016,04,09,08,50,7.30
2016,04,09,08,51,7.40
2016,04,09,08,52,7.40
2016,04,09,08,53,7.40
2016,04,09,08,54,7.30
2016,04,09,08,55,7.30
2016,04,09,08,56,7.30
2016,04,09,08,57,7.20
2016,04,09,08,58,7.20
2016,04,09,08,59,7.20
2016,04,09,09,00,7.20
2016,04,09,09,01,7.20
2016,04,09,09,02,7.20
2016,04,09,09,03,7.10
2016,04,09,09,04,7.10
2016,04,09,09,05,7.10
2016,04,09,09,06,7.10
2016,04,09,09,07,7.20
2016,04,09,09,08,7.20
2016,04,09,09,09,7.20
2016,04,09,09,10,7.20
2016,04,09,09,11,7.20
2016,04,09,09,12,7.20
2016,04,09,09,13,7.20
2016,04,09,09,14,7.20
2016,04,09,09,15,7.20
2016,04,09,09,16,7.20
2016,04,09,09,17,7.20
2016,04,09,09,18,7.20
2016,04,09,09,19,7.20
2016,04,09,09,20,7.20
2016,04,09,09,21,7.10
2016,04,09,09,22,7.10
2016,04,09,09,23,7.20
2016,04,09,09,24,7.20
2016,04,09,09,25,7.20
2016,04,09,09,26,7.20
2016,04,09,09,27,7.20
2016,04,09,09,28,7.20
2016,04,09,09,29,7.20
2016,04,09,09,30,7.20
2016,04,09,09,31,7.10
2016,04,09,09,32,7.10
2016,04,09,09,33,7.10
2016,04,09,09,34,7.10
2016,04,09,09,35,7.10
2016,04,09,09,36,7.10
2016,04,09,09,37,7.10
2016,04,09,09,38,7.10
2016,04,09,09,39,7.20
2016,04,09,09,40,7.20
2016,04,09,09,41,7.20
2016,04,09,09,42,7.20
2016,04,09,09,43,7.20
2016,04,09,09,44,7.20
2016,04,09,09,45,7.20
2016,04,09,09,46,7.20
2016,04,09,09,47,7.20
2016,04,09,09,48,7.20
2016,04,09,09,49,7.20
2016,04,09,09,50,7.20
2016,04,09,09,51,7.20
2016,04,09,09,52,7.20
2016,04,09,09,53,7.30
2016,04,09,09,54,7.30
2016,04,09,09,55,7.40
2016,04,09,09,56,7.40
2016,04,09,09,57,7.40
2016,04,09,09,58,7.40
2016,04,09,09,59,7.40
2016,04,09,10,00,7.40
2016,04,09,10,01,7.40
2016,04,09,10,02,7.40
2016,04,09,10,03,7.30
2016,04,09,10,04,7.30
2016,04,09,10,05,7.30
2016,04,09,10,06,7.30
2016,04,09,10,07,7.20
2016,04,09,10,08,7.20
2016,04,09,10,09,7.10
2016,04,09,10,10,7.10
2016,04,09,10,11,7.10
2016,04,09,10,12,7.10
2016,04,09,10,13,7.20
2016,04,09,10,14,7.20
2016,04,09,10,15,7.20
2016,04,09,10,16,7.20
2016,04,09,10,17,7.20
2016,04,09,10,18,7.20
2016,04,09,10,19,7.20
2016,04,09,10,20,7.20
2016,04,09,10,21,7.20
2016,04,09,10,22,7.20
2016,04,09,10,23,7.20
2016,04,09,10,24,7.30
2016,04,09,10,25,7.30
2016,04,09,10,26,7.30
2016,04,09,10,27,7.30
2016,04,09,10,28,7.30
2016,04,09,10,29,7.30
2016,04,09,10,30,7.40
2016,04,09,10,31,7.40
2016,04,09,10,32,7.40
2016,04,09,10,33,7.50
2016,04,09,10,34,7.50
2016,04,09,10,35,7.60
2016,04,09,10,36,7.60
2016,04,09,10,37,7.60
2016,04,09,10,38,7.60
2016,04,09,10,39,7.60
2016,04,09,10,40,7.60
2016,04,09,10,41,7.60
2016,04,09,10,42,7.60
2016,04,09,10,43,7.60
2016,04,09,10,44,7.60
2016,04,09,10,45,7.60
2016,04,09,10,46,7.60
2016,04,09,10,47,7.70
2016,04,09,10,48,7.70
2016,04,09,10,49,7.60
2016,04,09,10,50,7.60
2016,04,09,10,51,7.60
2016,04,09,10,52,7.60
2016,04,09,10,53,7.60
2016,04,09,10,54,7.60
2016,04,09,10,55,7.60
2016,04,09,10,56,7.60
2016,04,09,10,57,7.60
2016,04,09,10,58,7.70
2016,04,09,10,59,7.70
2016,04,09,11,00,7.70
2016,04,09,11,01,7.80
2016,04,09,11,02,7.80
2016,04,09,11,03,7.90
2016,04,09,11,04,8.00
2016,04,09,11,05,8.00
2016,04,09,11,06,8.00
2016,04,09,11,07,8.10
2016,04,09,11,08,8.20
2016,04,09,11,09,8.40
2016,04,09,11,10,8.50
2016,04,09,11,11,8.60
2016,04,09,11,12,8.70
2016,04,09,11,13,8.70
2016,04,09,11,14,8.80
2016,04,09,11,15,8.80
2016,04,09,11,16,8.90
2016,04,09,11,17,8.90
2016,04,09,11,18,8.90
2016,04,09,11,19,9.00
2016,04,09,11,20,9.10
2016,04,09,11,21,9.20
2016,04,09,11,22,9.30
2016,04,09,11,23,9.30
2016,04,09,11,24,9.40
2016,04,09,11,25,9.40
2016,04,09,11,26,9.40
2016,04,09,11,27,9.50
2016,04,09,11,28,9.50
2016,04,09,11,29,9.60
2016,04,09,11,30,9.70
2016,04,09,11,31,9.80
2016,04,09,11,32,9.90
2016,04,09,11,33,10.00
2016,04,09,11,34,10.10
2016,04,09,11,35,10.20
2016,04,09,11,36,10.20
2016,04,09,11,37,10.30
2016,04,09,11,38,10.40
2016,04,09,11,39,10.50
2016,04,09,11,40,10.50
2016,04,09,11,41,10.60
2016,04,09,11,42,10.60
2016,04,09,11,43,10.70
2016,04,09,11,44,10.80
2016,04,09,11,45,10.90
2016,04,09,11,46,10.90
2016,04,09,11,47,10.90
2016,04,09,11,48,10.90
2016,04,09,11,49,10.90
2016,04,09,11,50,11.00
2016,04,09,11,51,11.10
2016,04,09,11,52,11.20
2016,04,09,11,53,11.30
2016,04,09,11,54,11.40
2016,04,09,11,55,11.40
2016,04,09,11,56,11.40
2016,04,09,11,57,11.40
2016,04,09,11,58,11.40
2016,04,09,11,59,11.40
2016,04,09,12,00,11.40
2016,04,09,12,01,11.50
2016,04,09,12,02,11.60
2016,04,09,12,03,11.60
2016,04,09,12,04,11.70
2016,04,09,12,05,11.80
2016,04,09,12,06,11.90
2016,04,09,12,07,11.90
2016,04,09,12,08,12.00
2016,04,09,12,09,12.10
2016,04,09,12,10,12.20
2016,04,09,12,11,12.20
2016,04,09,12,12,12.30
2016,04,09,12,13,12.30
2016,04,09,12,14,12.30
2016,04,09,12,15,12.30
2016,04,09,12,16,12.30
2016,04,09,12,17,12.30
2016,04,09,12,18,12.30
2016,04,09,12,19,12.30
2016,04,09,12,20,12.40
2016,04,09,12,21,12.40
2016,04,09,12,22,12.50
2016,04,09,12,23,12.50
2016,04,09,12,24,12.50
2016,04,09,12,25,12.60
2016,04,09,12,26,12.60
2016,04,09,12,27,12.60
2016,04,09,12,28,12.60
2016,04,09,12,29,12.70
2016,04,09,12,30,12.80
2016,04,09,12,31,12.90
2016,04,09,12,32,13.00
2016,04,09,12,33,13.10
2016,04,09,12,34,13.20
2016,04,09,12,35,13.30
2016,04,09,12,36,13.30
2016,04,09,12,37,13.40
2016,04,09,12,38,13.50
2016,04,09,12,39,13.50
2016,04,09,12,40,13.60
2016,04,09,12,41,13.60
2016,04,09,12,42,13.70
2016,04,09,12,43,13.70
2016,04,09,12,44,13.70
2016,04,09,12,45,13.70
2016,04,09,12,46,13.70
2016,04,09,12,47,13.80
2016,04,09,12,48,13.80
2016,04,09,12,49,13.80
2016,04,09,12,50,13.80
2016,04,09,12,51,13.70
2016,04,09,12,52,13.60
2016,04,09,12,53,13.60
2016,04,09,12,54,13.60
2016,04,09,12,55,13.60
2016,04,09,12,56,13.60
2016,04,09,12,57,13.70
2016,04,09,12,58,13.70
2016,04,09,12,59,13.80
2016,04,09,13,00,13.80
2016,04,09,13,01,13.80
2016,04,09,13,02,13.80
2016,04,09,13,03,13.90
2016,04,09,13,04,13.90
2016,04,09,13,05,13.80
2016,04,09,13,06,13.80
2016,04,09,13,07,13.80
2016,04,09,13,08,13.90
2016,04,09,13,09,13.90
2016,04,09,13,10,13.90
2016,04,09,13,11,13.90
2016,04,09,13,12,13.90
2016,04,09,13,13,13.90
2016,04,09,13,14,13.90
2016,04,09,13,15,13.90
2016,04,09,13,16,13.90
2016,04,09,13,17,13.90
2016,04,09,13,18,13.90
2016,04,09,13,19,13.90
2016,04,09,13,20,13.90
2016,04,09,13,21,13.90
2016,04,09,13,22,13.90
2016,04,09,13,23,13.90
2016,04,09,13,24,13.90
2016,04,09,13,25,13.80
2016,04,09,13,26,13.80
2016,04,09,13,27,13.80
2016,04,09,13,28,13.80
2016,04,09,13,29,13.70
2016,04,09,13,30,13.70
2016,04,09,13,31,13.70
2016,04,09,13,32,13.70
2016,04,09,13,33,13.70
2016,04,09,13,34,13.80
2016,04,09,13,35,13.80
2016,04,09,13,36,13.90
2016,04,09,13,37,13.90
2016,04,09,13,38,13.90
2016,04,09,13,39,14.00
2016,04,09,13,40,14.00
2016,04,09,13,41,14.00
2016,04,09,13,42,14.10
2016,04,09,13,43,14.20
2016,04,09,13,44,14.20
2016,04,09,13,45,14.30
2016,04,09,13,46,14.30
2016,04,09,13,47,14.30
2016,04,09,13,48,14.40
2016,04,09,13,49,14.40
2016,04,09,13,50,14.40
2016,04,09,13,51,14.50
2016,04,09,13,52,14.50
2016,04,09,13,53,14.50
2016,04,09,13,54,14.50
2016,04,09,13,55,14.40
2016,04,09,13,56,14.30
2016,04,09,13,57,14.20
2016,04,09,13,58,14.00
2016,04,09,13,59,13.80
2016,04,09,14,00,13.60
2016,04,09,14,01,13.40
2016,04,09,14,02,13.30
2016,04,09,14,03,13.10
2016,04,09,14,04,13.00
2016,04,09,14,05,12.90
2016,04,09,14,06,12.90
2016,04,09,14,07,13.00
2016,04,09,14,08,13.00
2016,04,09,14,09,13.10
2016,04,09,14,10,13.10
2016,04,09,14,11,13.20
2016,04,09,14,12,13.30
2016,04,09,14,13,13.30
2016,04,09,14,14,13.30
2016,04,09,14,15,13.30
2016,04,09,14,16,13.30
2016,04,09,14,17,13.40
2016,04,09,14,18,13.40
2016,04,09,14,19,13.40
2016,04,09,14,20,13.40
2016,04,09,14,21,13.30
2016,04,09,14,22,13.20
2016,04,09,14,23,13.20
2016,04,09,14,24,13.10
2016,04,09,14,25,13.00
2016,04,09,14,26,13.00
2016,04,09,14,27,13.00
2016,04,09,14,28,12.90
2016,04,09,14,29,13.00
2016,04,09,14,30,13.00
2016,04,09,14,31,13.10
2016,04,09,14,32,13.20
2016,04,09,14,33,13.30
2016,04,09,14,34,13.30
2016,04,09,14,35,13.30
2016,04,09,14,36,13.30
2016,04,09,14,37,13.40
2016,04,09,14,38,13.50
2016,04,09,14,39,13.50
2016,04,09,14,40,13.60
2016,04,09,14,41,13.70
2016,04,09,14,42,13.70
2016,04,09,14,43,13.70
2016,04,09,14,44,13.70
2016,04,09,14,45,13.80
2016,04,09,14,46,13.70
2016,04,09,14,47,13.80
2016,04,09,14,48,13.80
2016,04,09,14,49,13.80
2016,04,09,14,50,13.90
2016,04,09,14,51,13.90
2016,04,09,14,52,13.90
2016,04,09,14,53,14.00
2016,04,09,14,54,14.00
2016,04,09,14,55,14.10
2016,04,09,14,56,14.10
2016,04,09,14,57,14.10
2016,04,09,14,58,14.20
2016,04,09,14,59,14.20
2016,04,09,15,00,14.20
2016,04,09,15,01,14.30
2016,04,09,15,02,14.30
2016,04,09,15,03,14.30
2016,04,09,15,04,14.30
2016,04,09,15,05,14.30
2016,04,09,15,06,14.30
2016,04,09,15,07,14.30
2016,04,09,15,08,14.30
2016,04,09,15,09,14.40
2016,04,09,15,10,14.40
2016,04,09,15,11,14.40
2016,04,09,15,12,14.40
2016,04,09,15,13,14.40
2016,04,09,15,14,14.40
2016,04,09,15,15,14.50
2016,04,09,15,16,14.50
2016,04,09,15,17,14.40
2016,04,09,15,18,14.40
2016,04,09,15,19,14.40
2016,04,09,15,20,14.30
2016,04,09,15,21,14.30
2016,04,09,15,22,14.30
2016,04,09,15,23,14.30
2016,04,09,15,24,14.30
2016,04,09,15,25,14.20
2016,04,09,15,26,14.20
2016,04,09,15,27,14.20
2016,04,09,15,28,14.20
2016,04,09,15,29,14.10
2016,04,09,15,30,14.00
2016,04,09,15,31,13.90
2016,04,09,15,32,13.80
2016,04,09,15,33,13.70
2016,04,09,15,34,13.70
2016,04,09,15,35,13.70
2016,04,09,15,36,13.80
2016,04,09,15,37,13.90
2016,04,09,15,38,13.90
2016,04,09,15,39,14.00
2016,04,09,15,40,14.00
2016,04,09,15,41,14.10
2016,04,09,15,42,14.10
2016,04,09,15,43,14.10
2016,04,09,15,44,14.20
2016,04,09,15,45,14.20
2016,04,09,15,46,14.20
2016,04,09,15,47,14.20
2016,04,09,15,48,14.30
2016,04,09,15,49,14.30
2016,04,09,15,50,14.30
2016,04,09,15,51,14.40
2016,04,09,15,52,14.40
2016,04,09,15,53,14.40
2016,04,09,15,54,14.30
2016,04,09,15,55,14.40
2016,04,09,15,56,14.40
2016,04,09,15,57,14.40
2016,04,09,15,58,14.40
2016,04,09,15,59,14.40
2016,04,09,16,00,14.40
2016,04,09,16,01,14.30
2016,04,09,16,02,14.30
2016,04,09,16,03,14.40
2016,04,09,16,04,14.40
2016,04,09,16,05,14.50
2016,04,09,16,06,14.60
2016,04,09,16,07,14.60
2016,04,09,16,08,14.70
2016,04,09,16,09,14.70
2016,04,09,16,10,14.70
2016,04,09,16,11,14.70
2016,04,09,16,12,14.80
2016,04,09,16,13,14.80
2016,04,09,16,14,14.70
2016,04,09,16,15,14.60
2016,04,09,16,16,14.60
2016,04,09,16,17,14.60
2016,04,09,16,18,14.50
2016,04,09,16,19,14.60
2016,04,09,16,20,14.60
2016,04,09,16,21,14.60
2016,04,09,16,22,14.60
2016,04,09,16,23,14.70
2016,04,09,16,24,14.70
2016,04,09,16,25,14.70
2016,04,09,16,26,14.70
2016,04,09,16,27,14.80
2016,04,09,16,28,14.80
2016,04,09,16,29,14.80
2016,04,09,16,30,14.80
2016,04,09,16,31,14.90
2016,04,09,16,32,14.90
2016,04,09,16,33,14.90
2016,04,09,16,34,14.90
2016,04,09,16,35,14.90
2016,04,09,16,36,14.80
2016,04,09,16,37,14.80
2016,04,09,16,38,14.70
2016,04,09,16,39,14.60
2016,04,09,16,40,14.50
2016,04,09,16,41,14.40
2016,04,09,16,42,14.30
2016,04,09,16,43,14.20
2016,04,09,16,44,14.10
2016,04,09,16,45,14.00
2016,04,09,16,46,14.00
2016,04,09,16,47,14.00
2016,04,09,16,48,14.00
2016,04,09,16,49,14.00
2016,04,09,16,50,14.10
2016,04,09,16,51,14.10
2016,04,09,16,52,14.10
2016,04,09,16,53,14.20
2016,04,09,16,54,14.30
2016,04,09,16,55,14.30
2016,04,09,16,56,14.30
2016,04,09,16,57,14.30
2016,04,09,16,58,14.30
2016,04,09,16,59,14.30
2016,04,09,17,00,14.30
2016,04,09,17,01,14.30
2016,04,09,17,02,14.30
2016,04,09,17,03,14.30
2016,04,09,17,04,14.30
2016,04,09,17,05,14.40
2016,04,09,17,06,14.50
2016,04,09,17,07,14.50
2016,04,09,17,08,14.60
2016,04,09,17,09,14.60
2016,04,09,17,10,14.60
2016,04,09,17,11,14.70
2016,04,09,17,12,14.70
2016,04,09,17,13,14.70
2016,04,09,17,14,14.70
2016,04,09,17,15,14.70
2016,04,09,17,16,14.60
2016,04,09,17,17,14.60
2016,04,09,17,18,14.60
2016,04,09,17,19,14.60
2016,04,09,17,20,14.60
2016,04,09,17,21,14.50
2016,04,09,17,22,14.50
2016,04,09,17,23,14.50
2016,04,09,17,24,14.50
2016,04,09,17,25,14.40
2016,04,09,17,26,14.40
2016,04,09,17,27,14.40
2016,04,09,17,28,14.30
2016,04,09,17,29,14.30
2016,04,09,17,30,14.30
2016,04,09,17,31,14.30
2016,04,09,17,32,14.20
2016,04,09,17,33,14.20
2016,04,09,17,34,14.20
2016,04,09,17,35,14.20
2016,04,09,17,36,14.20
2016,04,09,17,37,14.20
2016,04,09,17,38,14.20
2016,04,09,17,39,14.20
2016,04,09,17,40,14.20
2016,04,09,17,41,14.20
2016,04,09,17,42,14.10
2016,04,09,17,43,14.10
2016,04,09,17,44,14.10
2016,04,09,17,45,14.10
2016,04,09,17,46,14.10
2016,04,09,17,47,14.10
2016,04,09,17,48,14.20
2016,04,09,17,49,14.20